AirNav   Pilot Hours Calculator
 
 725 users online  

4V8 Deerfield Valley Regional Airport
West Dover, Vermont, USA

GOING TO WEST DOVER?


FAA INFORMATION EFFECTIVE 27 FEBRUARY 2020

Location

FAA Identifier: 4V8
Lat/Long: 42-55-37.6880N 072-51-56.3530W
42-55.628133N 072-51.939217W
42.9271356,-72.8656536
(estimated)
Elevation: 1953 ft. / 595.3 m (surveyed)
Variation: 15W (1985)
From city: 1 mile SW of WEST DOVER, VT
Time zone: UTC -5 (UTC -4 during Daylight Saving Time)
Zip code: 05356

Airport Operations

Airport use: Open to the public
Activation date: 11/1982
Control tower: no
ARTCC: BOSTON CENTER
FSS: BURLINGTON FLIGHT SERVICE STATION
NOTAMs facility: BTV (NOTAM-D service available)
Attendance: UNATTND
Wind indicator: lighted
Segmented circle: no
Lights: SS-SR
Landing fee: yes

Airport Communications

CTAF/UNICOM: 122.8
WX ASOS at DDH (17 nm W): 135.925 (802-442-6059)
WX ASOS at AQW (19 nm SW): 134.775 (413-664-6658)
  • APCH/DEP SVC PRVDD BY BOSTON ARTCC ON FREQS 123.75/338.2 (GARDNER RCAG).

Nearby radio navigation aids

VOR radial/distance  VOR name  Freq  Var
CAMr115/21.4CAMBRIDGE VOR/DME115.0014W
EENr302/26.5KEENE VORTAC109.4014W
CTRr019/38.3CHESTER VOR/DME115.1013W

 
NDB name  Hdg/Dist  Freq  Var  ID
CLAREMONT235/34.223316WCNH -.-. -. ....

Airport Services

Parking: hangars and tiedowns

Runway Information

Runway 1/19

Dimensions: 2650 x 75 ft. / 808 x 23 m
Surface: asphalt, in excellent condition
Runway edge lights: medium intensity
THR LGTS ALL MISG.
RUNWAY 1  RUNWAY 19
Latitude: 42-55.413750N42-55.843583N
Longitude: 072-51.887917W072-51.989667W
Elevation: 1948.0 ft.1950.0 ft.
Traffic pattern: leftleft
Runway heading: 005 magnetic, 350 true185 magnetic, 170 true
Markings: nonprecision, in good conditionbasic, in good condition
Touchdown point: yes, no lightsno, no lights
Obstructions: 61 ft. trees, 662 ft. from runway, 54 ft. right of centerline, 7:1 slope to clear29 ft. trees, 945 ft. from runway, 160 ft. left of centerline, 25:1 slope to clear

Airport Ownership and Management from official FAA records

Ownership: Privately-owned
Owner: DEERFIELD VALLEY REG AIRPORT, LLC
HERMITAGE REALTY ESTATE HOLDING CO., 25 HANDLE ROAD
WEST DOVER, VT 05356
Phone (802) 490-0775
Manager: JIM BARNES
P.O. BOX 2210, 69 AIRPORT ROAD
WEST DOVER, VT 05356
Phone (802) 490-0775

Airport Operational Statistics

Aircraft based on the field: 7
Single engine airplanes: 5
Multi engine airplanes: 2
    
Aircraft operations: avg 59/week *
58% local general aviation
42% transient general aviation
* for 12-month period ending 15 September 2015

Additional Remarks

NEWLY PAVED RWYS & RAMP AREA.
RENNOVATED TRML BLDG WITH LOUNGE AREA AND OVNGT ACCOMODATIONS.
RENTAL CAR AVBL 802-447-2203 OPT 4.
FOR CD CTC BOSTON ARTCC AT 603-879-6859.

Instrument Procedures

NOTE: All procedures below are presented as PDF files. If you need a reader for these files, you should download the free Adobe Reader.

NOT FOR NAVIGATION. Please procure official charts for flight.
FAA instrument procedures published for use from 27 February 2020 at 0901Z to 26 March 2020 at 0900Z.

 
IAPs - Instrument Approach Procedures
RNAV (GPS) RWY 01   download (166KB)
NOTE: Special Take-Off Minimums/Departure Procedures apply   download (180KB)

Other nearby airports with instrument procedures:

KDDH - William H Morse State Airport (17 nm W)
KAQW - Harriman-and-West Airport (19 nm SW)
0B5 - Turners Falls Airport (25 nm SE)
KEEN - Dillant-Hopkins Airport (26 nm E)
KVSF - Hartness State Airport (Springfield) (29 nm NE)
 
Loc | Ops | Rwys | IFR | FBO | Links
Com | Nav | Svcs | Stats | Notes
Area around 4V8 (Deerfield Valley Regional Airport)
 
Road maps at: MapQuest Bing Google
 
Aerial photo
WARNING: Photo may not be current or correct
Aerial photo of 4V8 (Deerfield Valley Regional Airport)
Photo by Guy Rouelle
Photo taken 23-May-2015
looking north.

Do you have a better or more recent aerial photo of Deerfield Valley Regional Airport that you would like to share? If so, please send us your photo.

 
Sectional chart

 
Airport distance calculator
Flying to Deerfield Valley Regional Airport? Find the distance to fly.

From to 4V8

Sunrise and sunset
Times for 28-Feb-2020
 Local
(UTC-5)
 Zulu
(UTC)
Morning civil twilight06:0211:02
Sunrise06:3011:30
Sunset17:3822:38
Evening civil twilight18:0723:07

Current date and time
Zulu (UTC)  28-Feb-2020 09:41:39
Local (UTC-5)  28-Feb-2020 04:41:39
 
METAR
KDDH 
17nm W 
280854Z AUTO 24015G20KT 10SM BKN055 M04/M14 A2963 RMK AO2 SLP042 T10441144 51001
KAQW 
19nm SW 
280852Z AUTO 26015G22KT 10SM SCT042 OVC050 M04/M12 A2965 RMK AO2 PK WND 27028/0811 SLP049 T10441122 51000
KEEN 
26nm E 
280856Z AUTO 23009KT 10SM OVC055 M04/M13 A2964 RMK AO2 SLP046 T10391128 51002 FZRANO $
KVSF 
30nm NE 
280854Z AUTO 23014G22KT 10SM SCT050 M04/M14 A2959 RMK AO2 PK WND 25028/0803 SLP027 T10441139 51001
KORE 
34nm SE 
280852Z AUTO 26014G22KT 10SM OVC055 M03/M14 A2966 RMK AO2 SLP051 T10281144 51004
TAF
KPSF 
35nm SW 
280530Z 2806/2906 26014G25KT P6SM SCT050 FM281500 26020G33KT P6SM BKN050 FM282300 26009KT P6SM VCSH BKN050
KRUT 
36nm N 
280537Z 2806/2906 25012G25KT P6SM OVC045 FM281300 23016G25KT P6SM BKN035 FM282000 24015G23KT P6SM BKN045 FM282200 24013KT P6SM BKN045
KGFL 
41nm NW 
280530Z 2806/2906 24012G22KT P6SM BKN035 FM281400 23015G25KT P6SM BKN040 FM282300 24009KT P6SM BKN050
KALB 
42nm W 
280530Z 2806/2906 24015G26KT P6SM SCT040 BKN060 FM281400 26018G30KT P6SM BKN045 FM282300 26009KT P6SM BKN050
NOTAMs
Click for the latest NOTAMs
NOTAMs are issued by the DoD/FAA and will open in a separate window not controlled by AirNav.

 

 
 

Would you like to see your business listed on this page?

 If your business provides an interesting product or service to pilots, flight crews, aircraft, or users of the Deerfield Valley Regional Airport, you should consider listing it here.  To start the listing process, click on the button below
 
Add a business
 

Other Pages about Deerfield Valley Regional Airport

deerfieldvalleyairport.com
vtrans.vermont.gov/...
 
Update a link
 
Copyright © AirNav, LLC. All rights reserved. Privacy Policy  Contact